#timestamp,LO_Frequency,Hit,StdDev 
1527091215.1,286047000.4,N
1527091235.9,286047001.1,N
1527091255.7,286046998.8,N
1527091275.5,286047001.0,N
1527091295.4,286047001.1,N
1527091315.2,286047000.2,N
1527091335.1,286047000.0,N
1527091336.0,286047000.0,N
1527091355.8,286047000.5,N
1527091375.6,286047000.6,N
1527091395.5,286047002.6,N
1527091415.3,286047000.0,N
1527091435.1,286046999.9,N
1527091455.9,286047002.7,N
1527091475.7,286047002.4,N
1527091495.6,286047001.9,N
1527091515.4,286046999.7,N
1527091535.2,286046999.7,N
1527091555.1,286047002.3,N
1527091556.0,286047002.3,N
1527091575.8,286047002.2,N
1527091595.7,286047001.7,N
1527091615.5,286047001.3,N
1527091635.3,286047001.8,N
1527091655.2,286047001.9,N
1527091675.0,286047002.7,N
1527091675.9,286047002.7,N
1527091695.7,286047001.5,N
1527091715.6,286047001.4,N
1527091735.4,286047001.8,N
1527091755.3,286047002.2,N
1527091775.1,286047000.4,N
1527091776.0,286047000.4,N
1527091795.8,286047000.2,N
1527091815.7,286047001.6,N
1527091835.5,286047002.1,N
1527091855.4,286047002.8,N
1527091875.2,286046999.8,N
1527091895.0,286047001.5,N
1527091895.9,286047001.5,N
1527091915.8,286047001.6,N
1527091935.6,286047001.9,N
1527091955.4,286047002.5,N
1527091975.3,286047001.6,N
1527091995.1,286046999.9,N
1527092015.9,286047002.2,N
1527092035.7,286047001.3,N
1527092055.5,286047006.0,Y
1527092075.4,286047001.3,P
1527092095.2,286047002.6,P
1527092115.0,286047002.8,P
1527092116.0,286047002.8,Y
1527092135.8,286046998.7,P
1527092155.6,286046999.0,N
1527092175.5,286046999.2,N
1527092195.3,286046998.8,N
1527092215.1,286046997.0,N
1527092235.9,286046999.6,N
1527092255.7,286046998.9,N
1527092275.6,286046996.7,N
1527092295.4,286046997.0,N
1527092315.2,286046999.2,N
1527092335.1,286047001.1,N
1527092336.0,286047001.1,N
1527092355.8,286047002.6,N
1527092375.6,286047001.9,N
1527092395.5,286047000.6,N
1527092415.3,286047000.9,N
1527092435.2,286047000.2,N
1527092455.9,286047000.0,N
1527092475.7,286046999.9,N
1527092495.6,286047000.7,N
1527092515.4,286047001.2,N
1527092535.2,286046998.2,N
1527092555.1,286046996.5,N
1527092556.0,286046996.5,N
1527092575.8,286047000.7,N
1527092595.7,286046998.8,N
1527092615.5,286046999.6,N
1527092635.3,286046997.5,N
1527092655.2,286046995.6,N
1527092675.0,286046994.9,N
1527092675.9,286046994.9,N
1527092695.8,286046997.0,N
1527092715.6,286046999.6,N
1527092735.4,286046996.9,N
1527092755.3,286046999.2,N
1527092775.1,286046999.4,N
1527092795.8,286046999.6,N
1527092815.7,286046999.6,N
1527092835.5,286046999.5,N
1527092855.4,286047000.7,N
1527092875.2,286046998.2,N
1527092895.0,286046998.8,N
1527092895.9,286046998.8,N
1527092915.8,286046999.9,N
1527092935.6,286047000.3,N
1527092955.4,286047000.0,N
1527092975.3,286047000.0,N
1527092995.1,286047000.1,N
1527093015.9,286047000.0,N
1527093035.7,286047000.5,N
1527093055.5,286047000.6,N
1527093075.4,286047000.9,N
1527093095.2,286047000.1,N
1527093115.0,286046998.9,N
1527093116.0,286046998.9,N
1527093135.8,286046996.7,N
1527093155.6,286046998.6,N
1527093175.5,286047001.2,N
1527093195.3,286046998.5,N
1527093215.1,286046996.8,N
1527093235.9,286046995.3,Y
1527093255.7,286046996.6,P
1527093275.6,286046998.4,N
1527093295.4,286046998.2,N
1527093315.2,286046998.2,N
1527093335.1,286047000.0,N
1527093336.0,286047000.0,N
1527093355.8,286047000.6,N
1527093375.6,286046998.4,N
1527093395.5,286046997.0,N
1527093415.3,286046999.6,N
1527093435.2,286046998.2,N
1527093455.9,286046999.9,N
1527093475.7,286047001.9,N
1527093495.6,286047002.7,N
1527093515.4,286047000.0,N
1527093535.2,286046999.9,N
1527093555.1,286047000.1,N
1527093556.0,286047000.1,N
1527093575.8,286046999.7,N
1527093595.7,286046999.7,N
1527093615.5,286047002.4,N
1527093635.3,286047000.9,N
1527093655.2,286046998.5,N
1527093675.0,286047000.7,N
1527093675.9,286047000.7,N
1527093695.8,286047000.6,N
1527093715.6,286046998.2,N
1527093735.4,286046999.1,N
1527093755.3,286046999.2,N
1527093775.1,286047001.0,N
1527093776.0,286047001.0,N
1527093795.8,286047001.0,N
1527093815.7,286046998.5,N
1527093835.5,286047001.2,N
1527093855.4,286046998.7,N
1527093875.2,286046999.2,N
1527093895.0,286046998.3,N
1527093895.9,286046998.3,N
1527093915.8,286046998.2,N
1527093935.6,286047000.8,N
1527093955.4,286046998.8,N
1527093975.3,286046999.1,N
1527093995.1,286047001.0,N
1527094015.9,286047000.6,N
1527094035.7,286047000.4,N
1527094055.5,286047001.2,N
1527094075.4,286046998.2,N
1527094095.2,286046998.7,N
1527094115.1,286046999.1,N
1527094116.0,286046999.1,N
1527094135.8,286046998.6,N
1527094155.6,286046997.1,N
1527094175.5,286046997.2,N
1527094195.3,286046997.0,N
1527094215.1,286046997.1,N
1527094235.9,286046997.5,N
1527094255.7,286046999.2,N
1527094275.6,286046999.4,N
1527094295.4,286046998.8,N
1527094315.2,286046998.3,N
1527094335.1,286047000.7,N
1527094336.0,286047000.7,N
1527094355.8,286046999.5,N
1527094375.7,286046999.5,N
1527094395.5,286046998.7,N
1527094415.3,286046998.4,N
1527094435.2,286047001.0,N
1527094455.0,286047000.6,N
1527094455.9,286047000.6,N
1527094475.7,286046998.1,N
1527094495.6,286047000.8,N
1527094515.4,286046998.3,N
1527094535.3,286046996.9,N
1527094555.1,286047001.1,N
1527094556.0,286047001.1,N
1527094575.8,286047001.2,N
1527094595.7,286047000.9,N
1527094615.5,286047000.8,N
1527094635.3,286047001.1,N
1527094655.2,286047000.6,N
1527094675.0,286047001.1,N
1527094675.9,286047001.1,N
1527094695.8,286047000.5,N
1527094715.6,286047000.9,N
1527094735.4,286047000.2,N
1527094755.3,286047000.3,N
1527094775.1,286047000.2,N
1527094795.8,286047002.5,N
